Time,TemperatureF,DewpointF,PressureIn,WindDirection,WindDirectionDegrees,WindSpeedMPH,WindSpeedGustMPH,Humidity,HourlyPrecipIn,Conditions,Clouds,dailyrainin,SoftwareType,DateUTC
2013-07-16 05:32:00,69.6,59.7,30.18,North,-999,0.0,0.0,71,0.00,,,-99.99,FreeWX 2.04,2013-07-16 09:32:00,
2013-07-16 19:12:00,87.1,54.5,30.12,North,-999,0.0,0.0,33,0.00,,,-99.99,FreeWX 2.04,2013-07-16 23:12:00,
2013-07-16 19:18:00,87.8,54.1,30.12,North,-999,0.0,0.0,32,0.00,,,-99.99,FreeWX 2.04,2013-07-16 23:18:00,
2013-07-16 19:23:00,87.3,52.9,30.12,North,-999,0.0,0.0,31,0.00,,,-99.99,FreeWX 2.04,2013-07-16 23:23:00,
2013-07-16 19:28:00,86.4,53.1,30.12,North,-999,0.0,0.0,32,0.00,,,-99.99,FreeWX 2.04,2013-07-16 23:28:00,
2013-07-16 19:33:00,85.5,53.8,30.12,North,-999,0.0,0.0,34,0.00,,,-99.99,FreeWX 2.04,2013-07-16 23:33:00,
2013-07-16 19:38:00,84.7,54.0,30.09,North,-999,0.0,0.0,35,0.00,,,-99.99,FreeWX 2.04,2013-07-16 23:38:00,
2013-07-16 19:43:00,83.8,53.2,30.09,North,-999,0.0,0.0,35,0.00,,,-99.99,FreeWX 2.04,2013-07-16 23:43:00,
2013-07-16 19:48:00,83.5,53.6,30.09,North,-999,0.0,0.0,36,0.00,,,-99.99,FreeWX 2.04,2013-07-16 23:48:00,
2013-07-16 19:53:00,83.3,54.3,30.09,North,-999,0.0,0.0,37,0.00,,,-99.99,FreeWX 2.04,2013-07-16 23:53:00,
2013-07-16 19:58:00,83.1,54.9,30.09,North,-999,0.0,0.0,38,0.00,,,-99.99,FreeWX 2.04,2013-07-16 23:58:00,
2013-07-16 20:03:00,82.6,55.0,30.09,North,-999,0.0,0.0,39,0.00,,,-99.99,FreeWX 2.04,2013-07-17 00:03:00,
2013-07-16 20:08:00,82.4,54.9,30.09,North,-999,0.0,0.0,39,0.00,,,-99.99,FreeWX 2.04,2013-07-17 00:08:00,
2013-07-16 20:13:00,82.4,54.9,30.09,North,-999,0.0,0.0,39,0.00,,,-99.99,FreeWX 2.04,2013-07-17 00:13:00,
2013-07-16 20:18:00,82.4,54.9,30.09,North,-999,0.0,0.0,39,0.00,,,-99.99,FreeWX 2.04,2013-07-17 00:18:00,
2013-07-16 20:23:00,81.9,54.5,30.12,North,-999,0.0,0.0,39,0.00,,,-99.99,FreeWX 2.04,2013-07-17 00:23:00,
2013-07-16 20:28:00,81.3,55.4,30.12,North,-999,0.0,0.0,41,0.00,,,-99.99,FreeWX 2.04,2013-07-17 00:28:00,
2013-07-16 20:33:00,81.3,55.9,30.12,North,-999,0.0,0.0,42,0.00,,,-99.99,FreeWX 2.04,2013-07-17 00:33:00,
2013-07-16 20:38:00,81.3,55.4,30.12,North,-999,0.0,0.0,41,0.00,,,-99.99,FreeWX 2.04,2013-07-17 00:38:00,
2013-07-16 20:43:00,81.5,56.1,30.12,North,-999,0.0,0.0,42,0.00,,,-99.99,FreeWX 2.04,2013-07-17 00:43:00,
2013-07-16 20:48:00,81.9,55.8,30.12,North,-999,0.0,0.0,41,0.00,,,-99.99,FreeWX 2.04,2013-07-17 00:48:00,
2013-07-16 20:53:00,81.7,55.6,30.12,North,-999,0.0,0.0,41,0.00,,,-99.99,FreeWX 2.04,2013-07-17 00:53:00,
2013-07-16 20:58:00,81.5,55.6,30.12,North,-999,0.0,0.0,41,0.00,,,-99.99,FreeWX 2.04,2013-07-17 00:58:00,
2013-07-16 21:03:00,81.3,55.4,30.12,North,-999,0.0,0.0,41,0.00,,,-99.99,FreeWX 2.04,2013-07-17 01:03:00,
2013-07-16 21:13:00,81.0,55.0,30.09,North,-999,0.0,0.0,41,0.00,,,-99.99,FreeWX 2.04,2013-07-17 01:13:00,
2013-07-16 21:18:00,80.6,55.4,30.09,North,-999,0.0,0.0,42,0.00,,,-99.99,FreeWX 2.04,2013-07-17 01:18:00,
2013-07-16 21:23:00,80.2,55.0,30.09,North,-999,0.0,0.0,42,0.00,,,-99.99,FreeWX 2.04,2013-07-17 01:23:00,
2013-07-16 21:28:00,80.2,55.8,30.09,North,-999,0.0,0.0,43,0.00,,,-99.99,FreeWX 2.04,2013-07-17 01:28:00,
2013-07-16 21:33:00,80.1,55.6,30.09,North,-999,0.0,0.0,43,0.00,,,-99.99,FreeWX 2.04,2013-07-17 01:33:00,
2013-07-16 21:38:00,79.9,55.9,30.12,North,-999,0.0,0.0,44,0.00,,,-99.99,FreeWX 2.04,2013-07-17 01:38:00,
2013-07-16 21:43:00,80.1,56.8,30.12,North,-999,0.0,0.0,45,0.00,,,-99.99,FreeWX 2.04,2013-07-17 01:43:00,
2013-07-16 21:48:00,79.9,56.7,30.12,North,-999,0.0,0.0,45,0.00,,,-99.99,FreeWX 2.04,2013-07-17 01:48:00,
2013-07-16 21:53:00,79.5,56.8,30.12,North,-999,0.0,0.0,46,0.00,,,-99.99,FreeWX 2.04,2013-07-17 01:53:00,
2013-07-16 21:58:00,79.5,57.6,30.12,North,-999,0.0,0.0,47,0.00,,,-99.99,FreeWX 2.04,2013-07-17 01:58:00,
2013-07-16 22:03:00,79.5,57.6,30.12,North,-999,0.0,0.0,47,0.00,,,-99.99,FreeWX 2.04,2013-07-17 02:03:00,
2013-07-16 22:08:00,79.3,57.4,30.12,North,-999,0.0,0.0,47,0.00,,,-99.99,FreeWX 2.04,2013-07-17 02:08:00,
2013-07-16 22:13:00,79.2,57.7,30.12,North,-999,0.0,0.0,48,0.00,,,-99.99,FreeWX 2.04,2013-07-17 02:13:00,
2013-07-16 22:18:00,79.0,58.1,30.12,North,-999,0.0,0.0,49,0.00,,,-99.99,FreeWX 2.04,2013-07-17 02:18:00,